Total_Precipitation_Accumulation
0.01 0.02 0.03 0.23 0.47 1.44 3.62 2.58 4.15 3.22 2.50 2.36 2.72 2.85 3.90 2.70 1.83 2.11 1.90 1.66 1.22 1.22 0.88 0.57 0.50 0.36 1.59 0.70 0.40 0.26 0.15 0.54 0.17 1.53 1.03 0.56 0.38 0.24 0.48 0.45 0.41 0.37 0.44 0.51 0.72 0.92 1.18 0.61 0.58 0.84 0.86 0.50 0.47 0.48 0.46 0.18 0.05 0.05 0.05 0.06 0.06 0.07 0.08 0.13 0.23 0.21 0.27 0.12 0.08 0.08 0.16 0.31 0.42 0.39 0.38 0.30 0.23 0.36 0.41 0.25 0.30 0.43 0.45 0.38 0.43 0.64 0.75 0.93 0.66 0.57 0.54 0.52 0.54 0.54 0.48 0.50 0.43
0.26 0.05 0.05 0.34 0.64 2.46 2.62 1.57 2.00 2.58 1.91 2.20 2.77 2.72 2.60 2.26 2.01 1.44 1.46 3.15 0.96 0.59 0.26 0.26 0.37 0.83 0.44 0.07 0.08 0.07 0.11 0.12 0.28 0.16 0.28 0.31 0.38 0.40 0.26 0.28 0.30 0.33 0.37 0.41 0.54 0.65 0.59 0.77 0.65 0.57 0.66 0.66 0.30 0.46 0.50 0.12 0.06 0.03 0.05 0.05 0.08 0.07 0.12 0.16 0.20 0.23 0.24 0.17 0.16 0.25 0.23 0.44 0.39 0.46 0.40 0.37 0.57 0.52 0.47 0.46 0.53 0.54 0.80 0.76 0.55 0.75 0.72 0.78 0.76 0.61 0.67 0.70 0.68 0.54 0.60 0.48 0.61
0.08 0.09 0.28 0.30 0.89 0.99 1.97 1.97 2.62 2.19 2.50 2.27 2.32 2.86 2.20 2.05 1.69 1.49 2.39 2.42 0.95 0.35 0.29 1.11 0.65 0.73 0.25 0.45 0.23 0.11 0.31 0.16 0.12 0.10 0.39 0.37 0.54 1.07 0.45 0.20 0.21 0.19 0.20 0.39 0.49 0.52 0.55 0.69 0.37 0.44 0.55 0.36 0.14 0.16 0.13 0.10 0.09 0.10 0.05 0.04 0.09 0.12 0.14 0.19 0.15 0.27 0.22 0.26 0.33 0.29 0.33 0.24 0.42 0.54 0.66 0.76 0.65 0.68 0.52 0.67 0.58 0.68 0.78 0.58 0.51 0.93 0.66 0.66 0.79 0.75 0.79 0.84 0.66 0.65 0.62 0.53 0.43
0.14 0.12 0.54 0.37 2.89 0.86 2.82 2.35 1.60 1.98 2.31 1.58 2.07 1.81 2.01 1.34 1.47 1.78 1.71 1.04 0.94 0.95 0.53 0.30 1.24 0.30 0.57 0.23 0.11 0.05 0.18 0.24 0.09 0.03 0.59 0.35 0.22 0.36 0.31 0.18 0.16 0.20 0.23 0.33 0.48 0.38 0.35 0.29 0.19 0.24 0.34 0.17 0.13 0.20 0.14 0.11 0.06 0.05 0.05 0.08 0.08 0.12 0.09 0.12 0.18 0.24 0.27 0.29 0.26 0.24 0.29 0.38 0.42 0.52 0.61 0.65 0.71 0.83 0.53 0.57 0.60 0.73 0.91 0.67 0.70 0.75 0.56 0.66 0.44 0.59 0.85 0.94 0.69 0.63 0.47 0.63 0.39
0.10 0.09 0.39 1.01 1.83 3.12 1.69 2.11 1.75 2.11 2.55 2.19 2.67 1.79 1.76 1.99 1.58 1.49 1.20 0.93 0.91 0.33 0.57 0.39 0.45 0.61 0.60 0.56 0.23 0.29 0.29 0.09 0.10 0.08 0.13 0.18 0.12 0.27 0.27 0.19 0.17 0.14 0.19 0.26 0.24 0.23 0.31 0.18 0.22 0.24 0.16 0.13 0.09 0.15 0.09 0.07 0.07 0.06 0.06 0.07 0.05 0.09 0.11 0.22 0.19 0.24 0.17 0.26 0.29 0.36 0.37 0.41 0.55 0.70 0.72 0.63 0.44 0.50 0.58 0.54 0.60 0.79 0.49 0.62 0.71 0.59 0.67 0.57 0.56 0.54 0.62 0.65 0.61 0.57 0.48 0.46 0.38
0.30 0.20 0.33 1.15 3.67 2.34 1.54 1.86 2.40 2.21 2.62 1.50 2.42 3.21 2.02 2.14 2.27 1.16 0.91 1.41 0.73 0.68 0.48 0.72 0.32 0.19 0.19 0.14 0.04 0.12 0.09 0.29 0.14 0.18 0.08 0.23 0.15 0.10 0.16 0.09 0.16 0.15 0.17 0.19 0.17 0.12 0.32 0.21 0.20 0.13 0.09 0.09 0.05 0.05 0.06 0.07 0.08 0.12 0.14 0.13 0.15 0.10 0.35 0.35 0.35 0.26 0.25 0.15 0.36 0.33 0.41 0.40 0.51 0.61 0.53 0.63 0.58 0.71 0.59 0.63 0.71 0.64 0.65 0.72 0.66 0.72 0.61 0.64 0.59 0.63 0.61 0.49 0.58 0.48 0.80 0.60 0.57
0.41 0.37 1.11 0.92 1.48 1.23 2.49 2.03 1.52 2.27 2.32 1.84 2.55 2.38 2.30 2.47 2.37 1.30 0.98 0.70 0.82 0.55 0.24 0.25 0.05 0.06 0.16 0.15 0.06 0.12 0.06 0.03 0.14 0.07 0.03 0.12 0.10 0.09 0.11 0.17 0.18 0.18 0.19 0.21 0.18 0.22 0.26 0.12 0.12 0.16 0.08 0.07 0.05 0.06 0.09 0.14 0.18 0.15 0.13 0.13 0.15 0.28 0.31 0.34 0.35 0.38 0.47 0.39 0.51 0.44 0.53 0.39 0.55 0.64 0.79 0.69 0.77 0.71 0.65 0.65 0.75 0.71 0.56 0.60 0.74 0.61 0.75 0.50 0.52 0.51 0.55 0.51 0.56 0.66 0.84 0.89 0.79
0.32 1.86 1.84 2.33 3.41 2.06 2.00 1.38 1.96 1.39 2.37 2.13 2.56 2.41 2.80 1.68 1.46 1.69 1.09 0.99 0.47 0.51 0.46 0.14 0.32 0.70 0.66 0.05 0.54 0.32 0.09 0.10 0.07 0.03 0.03 0.06 0.08 0.10 0.14 0.15 0.15 0.21 0.22 0.17 0.19 0.18 0.28 0.09 0.08 0.10 0.06 0.05 0.04 0.07 0.07 0.11 0.13 0.13 0.24 0.27 0.38 0.39 0.44 0.48 0.35 0.38 0.38 0.58 0.44 0.50 0.41 0.44 0.60 0.65 0.87 0.86 0.80 0.67 0.76 0.57 0.93 0.63 0.71 0.63 0.61 0.72 0.96 0.42 0.47 0.72 0.68 0.56 0.64 0.79 0.99 0.76 0.84
0.90 1.08 1.93 1.82 2.08 1.75 1.49 2.16 1.75 1.06 2.43 2.49 2.88 2.50 3.13 2.26 1.55 1.45 1.26 1.81 0.86 0.43 0.34 0.18 0.21 0.67 0.40 0.26 0.37 0.26 0.19 0.05 0.04 0.03 0.05 0.08 0.07 0.10 0.12 0.15 0.11 0.17 0.16 0.18 0.17 0.14 0.17 0.11 0.09 0.09 0.06 0.04 0.05 0.11 0.16 0.14 0.12 0.17 0.20 0.15 0.41 0.41 0.39 0.29 0.43 0.41 0.38 0.27 0.46 0.43 0.36 0.38 0.53 0.74 0.75 0.81 0.76 0.59 0.75 0.89 0.69 0.67 0.53 0.47 0.66 0.61 0.75 0.59 0.62 0.58 0.59 0.62 0.72 0.68 0.66 0.86 0.91
1.30 1.05 3.08 1.92 1.28 1.93 1.30 1.64 1.53 2.29 2.82 2.21 3.06 3.07 2.68 2.07 1.82 1.87 0.85 1.44 1.25 0.44 0.41 0.18 0.15 0.77 0.30 0.39 0.32 0.25 0.29 0.06 0.04 0.07 0.06 0.06 0.05 0.08 0.10 0.12 0.09 0.11 0.13 0.17 0.15 0.08 0.06 0.19 0.08 0.06 0.04 0.05 0.09 0.18 0.11 0.13 0.23 0.27 0.24 0.37 0.40 0.48 0.48 0.37 0.40 0.44 0.36 0.41 0.41 0.41 0.50 0.44 0.84 0.84 0.70 0.75 0.70 0.49 0.63 0.86 0.69 0.50 0.52 0.53 0.55 0.52 0.49 0.53 0.74 0.49 0.63 0.65 0.58 0.64 0.45 0.68 0.81
2.19 1.22 1.24 1.89 1.59 1.64 1.67 1.44 1.78 1.55 2.35 2.37 2.68 3.43 2.74 2.48 1.50 1.87 1.35 1.76 0.48 0.52 0.18 0.10 0.19 0.27 0.19 0.46 0.50 0.32 0.10 0.04 0.04 0.11 0.07 0.05 0.08 0.12 0.13 0.13 0.09 0.09 0.13 0.23 0.12 0.07 0.09 0.11 0.18 0.08 0.11 0.07 0.11 0.09 0.21 0.24 0.26 0.32 0.41 0.39 0.46 0.33 0.46 0.57 0.56 0.38 0.46 0.41 0.40 0.28 0.55 0.40 0.60 0.49 0.59 0.62 0.58 0.48 0.51 0.67 0.53 0.55 0.45 0.46 0.48 0.42 0.41 0.47 0.39 0.44 0.68 0.70 0.43 0.56 0.71 0.58 0.62
1.89 1.88 2.03 2.34 1.70 1.22 1.53 1.79 1.58 1.97 3.03 2.03 3.22 3.40 2.52 2.24 1.25 0.96 1.43 0.80 0.64 0.44 0.25 0.09 0.32 0.14 0.22 0.18 0.47 0.59 0.14 0.06 0.07 0.05 0.08 0.09 0.12 0.07 0.07 0.15 0.11 0.10 0.12 0.10 0.09 0.09 0.06 0.13 0.17 0.30 0.11 0.10 0.13 0.16 0.17 0.23 0.28 0.50 0.36 0.35 0.27 0.42 0.37 0.36 0.37 0.35 0.32 0.29 0.36 0.38 0.51 0.44 0.68 0.57 0.62 0.55 0.65 0.56 0.61 0.60 0.42 0.49 0.45 0.44 0.32 0.47 0.40 0.41 0.52 0.58 0.63 0.57 0.47 0.55 0.71 0.60 0.62
1.42 1.58 2.26 1.29 1.61 1.27 1.13 1.94 1.95 2.21 1.91 2.82 3.02 2.87 2.73 1.95 2.32 1.39 1.35 1.52 0.85 1.18 0.35 0.39 0.07 0.14 0.42 0.46 0.51 0.29 0.21 0.12 0.06 0.06 0.07 0.08 0.08 0.06 0.05 0.06 0.11 0.13 0.09 0.05 0.05 0.05 0.08 0.10 0.10 0.17 0.20 0.15 0.14 0.13 0.26 0.22 0.22 0.30 0.35 0.27 0.22 0.26 0.27 0.36 0.35 0.36 0.32 0.19 0.39 0.36 0.47 0.55 0.50 0.64 0.45 0.45 0.52 0.45 0.43 0.66 0.55 0.50 0.45 0.34 0.37 0.44 0.41 0.46 0.52 0.55 0.55 0.63 0.45 0.54 0.57 0.62 0.65
0.59 0.92 1.67 1.89 0.74 1.03 1.42 1.49 1.47 1.75 1.69 1.54 2.86 2.54 2.98 2.55 1.67 2.10 1.78 1.03 1.33 1.65 0.28 0.18 0.10 0.13 0.23 0.18 0.88 0.41 0.23 0.12 0.09 0.10 0.05 0.06 0.06 0.08 0.07 0.08 0.14 0.11 0.07 0.06 0.05 0.09 0.12 0.11 0.20 0.17 0.15 0.19 0.51 0.28 0.27 0.30 0.29 0.24 0.20 0.19 0.19 0.20 0.20 0.25 0.20 0.18 0.21 0.31 0.28 0.29 0.46 0.53 0.72 0.51 0.66 0.59 0.45 0.53 0.59 0.40 0.44 0.42 0.23 0.24 0.19 0.27 0.28 0.44 0.45 0.48 0.46 0.40 0.39 0.49 0.57 0.67 0.56
1.31 0.55 1.06 0.91 1.05 0.84 0.83 1.86 0.78 0.96 1.93 2.65 1.99 2.42 2.08 2.22 1.76 2.16 2.44 1.43 1.30 0.92 0.32 0.10 0.11 0.13 0.23 0.06 0.38 0.14 0.15 0.13 0.07 0.05 0.08 0.06 0.07 0.08 0.06 0.08 0.10 0.09 0.10 0.07 0.07 0.10 0.11 0.08 0.10 0.13 0.14 0.18 0.25 0.19 0.42 0.16 0.26 0.15 0.21 0.20 0.17 0.19 0.23 0.23 0.15 0.13 0.14 0.33 0.30 0.41 0.77 0.45 0.47 0.46 0.61 0.49 0.43 0.47 0.39 0.24 0.32 0.19 0.25 0.30 0.13 0.21 0.49 0.43 0.45 0.40 0.39 0.21 0.32 0.43 0.33 0.40 0.46
0.41 0.51 1.01 1.00 1.32 2.16 0.69 0.76 0.65 0.58 1.29 3.07 2.32 2.36 2.47 1.93 2.09 1.46 1.62 1.82 1.02 0.36 0.59 0.43 0.07 0.51 0.11 0.11 0.05 0.04 0.05 0.06 0.07 0.06 0.09 0.13 0.13 0.10 0.10 0.11 0.12 0.12 0.09 0.09 0.12 0.09 0.08 0.09 0.12 0.17 0.17 0.14 0.16 0.21 0.35 0.35 0.36 0.27 0.40 0.17 0.22 0.18 0.21 0.23 0.19 0.20 0.26 0.33 0.30 0.49 0.60 0.85 0.68 0.75 0.65 0.58 0.45 0.47 0.37 0.32 0.37 0.30 0.18 0.25 0.25 0.25 0.26 0.31 0.35 0.29 0.24 0.23 0.27 0.44 0.27 0.29 0.46
0.22 0.58 1.52 1.03 1.59 0.91 0.43 1.33 0.71 1.11 0.92 2.05 2.88 2.30 2.37 1.83 1.70 2.69 1.63 1.11 1.19 0.39 1.22 0.44 0.47 0.08 0.03 0.08 0.06 0.07 0.04 0.05 0.07 0.09 0.13 0.26 0.23 0.25 0.20 0.20 0.17 0.17 0.16 0.12 0.13 0.09 0.12 0.13 0.09 0.13 0.13 0.12 0.11 0.25 0.17 0.18 0.20 0.29 0.32 0.39 0.35 0.19 0.19 0.24 0.22 0.30 0.31 0.39 0.52 0.52 0.51 0.58 0.40 0.56 0.56 0.57 0.52 0.38 0.34 0.37 0.32 0.18 0.18 0.32 0.14 0.20 0.18 0.21 0.14 0.25 0.31 0.18 0.22 0.25 0.17 0.25 0.25
0.38 1.11 0.77 1.05 1.37 0.78 0.49 0.80 1.04 0.66 1.24 1.05 1.79 2.42 2.43 1.70 1.22 1.39 1.25 1.58 1.30 0.59 0.57 0.37 0.22 0.05 0.04 0.04 0.04 0.02 0.04 0.05 0.09 0.08 0.15 0.18 0.19 0.23 0.27 0.25 0.16 0.16 0.15 0.17 0.12 0.10 0.11 0.11 0.13 0.12 0.17 0.26 0.13 0.15 0.23 0.21 0.21 0.26 0.21 0.24 0.22 0.26 0.32 0.33 0.29 0.23 0.51 0.33 0.44 0.43 0.61 0.46 0.42 0.80 0.54 0.42 0.52 0.36 0.49 0.33 0.26 0.25 0.28 0.22 0.20 0.14 0.12 0.12 0.14 0.25 0.20 0.16 0.23 0.17 0.07 0.35 0.26
0.25 0.62 0.63 0.83 0.37 0.60 0.41 0.37 0.89 1.36 1.53 0.81 1.06 1.30 1.46 1.34 1.23 1.32 1.86 1.38 0.65 0.45 0.48 0.42 0.13 0.05 0.05 0.03 0.02 0.03 0.04 0.06 0.10 0.03 0.05 0.08 0.11 0.07 0.10 0.14 0.13 0.13 0.21 0.13 0.13 0.06 0.09 0.09 0.10 0.10 0.17 0.10 0.19 0.24 0.14 0.11 0.18 0.21 0.29 0.24 0.27 0.32 0.40 0.23 0.33 0.21 0.34 0.28 0.43 0.32 0.49 0.50 0.39 0.43 0.45 0.38 0.42 0.35 0.21 0.23 0.18 0.18 0.17 0.17 0.07 0.05 0.06 0.07 0.16 0.17 0.10 0.17 0.15 0.07 0.25 0.19 0.16
0.25 0.53 0.44 1.11 0.31 0.54 0.28 0.09 0.71 0.76 0.45 1.10 1.27 1.07 1.38 1.14 1.65 0.99 1.59 1.02 0.46 0.32 0.24 0.19 0.09 0.10 0.05 0.07 0.04 0.04 0.07 0.06 0.04 0.03 0.04 0.07 0.05 0.05 0.07 0.08 0.08 0.07 0.06 0.07 0.07 0.06 0.13 0.09 0.08 0.05 0.09 0.11 0.22 0.32 0.25 0.19 0.16 0.19 0.23 0.36 0.25 0.21 0.17 0.28 0.23 0.15 0.31 0.32 0.30 0.61 0.50 0.32 0.31 0.62 0.32 0.27 0.26 0.24 0.35 0.19 0.15 0.18 0.11 0.09 0.05 0.14 0.09 0.08 0.08 0.09 0.05 0.07 0.12 0.26 0.32 0.26 0.14
0.40 0.27 0.56 0.59 0.51 0.53 0.43 0.20 0.18 0.33 0.36 0.95 1.24 1.16 1.11 1.34 1.32 1.54 1.09 0.74 1.25 0.76 0.10 0.08 0.06 0.02 0.02 0.03 0.04 0.03 0.05 0.06 0.06 0.03 0.09 0.05 0.06 0.04 0.03 0.03 0.03 0.06 0.06 0.06 0.06 0.06 0.06 0.05 0.07 0.09 0.11 0.12 0.14 0.18 0.10 0.14 0.27 0.28 0.22 0.20 0.16 0.27 0.14 0.13 0.16 0.14 0.24 0.27 0.32 0.60 0.32 0.23 0.32 0.34 0.21 0.44 0.48 0.39 0.57 0.40 0.46 0.55 0.49 0.50 0.25 0.43 0.45 0.42 0.51 0.35 0.29 0.25 0.19 0.18 0.08 0.17 0.12
0.02 0.35 0.22 0.13 0.38 0.22 0.17 0.23 0.13 0.30 0.31 1.22 1.21 1.06 1.32 0.99 0.93 1.76 1.57 1.22 0.98 0.83 0.22 0.10 0.02 0.00 0.02 0.03 0.03 0.02 0.02 0.02 0.02 0.03 0.06 0.06 0.03 0.04 0.03 0.04 0.06 0.05 0.05 0.07 0.04 0.07 0.05 0.05 0.07 0.05 0.09 0.09 0.10 0.25 0.12 0.10 0.22 0.17 0.12 0.25 0.21 0.14 0.11 0.12 0.07 0.12 0.19 0.37 0.36 0.16 0.14 0.14 0.17 0.17 0.28 0.27 0.43 0.45 0.64 0.68 0.45 0.49 0.28 0.56 0.52 0.70 0.35 0.36 0.69 0.21 0.23 0.30 0.20 0.14 0.17 0.09 0.06
0.26 0.08 0.05 0.03 0.19 0.32 0.36 0.19 0.10 0.15 0.65 0.99 0.80 0.86 0.56 0.58 1.08 1.21 1.63 1.75 1.83 0.72 0.47 0.04 0.02 0.00 0.01 0.03 0.01 0.02 0.01 0.02 0.01 0.01 0.03 0.07 0.02 0.01 0.01 0.01 0.04 0.08 0.06 0.05 0.02 0.05 0.05 0.08 0.06 0.05 0.08 0.09 0.10 0.18 0.14 0.20 0.33 0.11 0.22 0.14 0.11 0.11 0.21 0.07 0.10 0.12 0.31 0.17 0.14 0.24 0.08 0.06 0.07 0.16 0.16 0.19 0.38 0.76 1.01 0.54 0.70 0.82 0.89 0.83 0.44 0.57 0.21 0.36 0.44 0.20 0.13 0.25 0.13 0.16 0.08 0.05 0.04
0.02 0.16 0.02 0.02 0.10 0.13 0.04 0.09 0.08 0.14 0.51 0.61 0.84 0.45 0.72 0.35 0.82 0.69 0.75 1.25 0.68 0.47 0.39 0.09 0.07 0.01 0.00 0.01 0.00 0.01 0.00 0.00 0.01 0.01 0.01 0.02 0.00 0.00 0.01 0.01 0.02 0.02 0.02 0.04 0.04 0.04 0.03 0.05 0.05 0.10 0.06 0.08 0.10 0.15 0.11 0.16 0.21 0.12 0.07 0.08 0.10 0.09 0.07 0.10 0.04 0.08 0.06 0.09 0.11 0.06 0.03 0.10 0.13 0.02 0.09 0.13 0.10 0.52 0.51 0.45 0.14 0.57 0.56 0.23 0.19 0.16 0.32 0.42 0.21 0.25 0.38 0.20 0.20 0.12 0.05 0.03 0.12
0.03 0.04 0.00 0.02 0.04 0.07 0.02 0.07 0.14 0.28 0.57 0.53 0.44 0.35 0.82 0.76 0.76 0.60 0.92 0.60 0.31 0.49 0.60 0.26 0.02 0.00 0.01 0.00 0.00 0.02 0.02 0.03 0.04 0.03 0.02 0.01 0.02 0.01 0.01 0.02 0.01 0.02 0.03 0.03 0.03 0.04 0.02 0.03 0.07 0.12 0.08 0.07 0.10 0.08 0.08 0.15 0.10 0.06 0.06 0.08 0.09 0.06 0.05 0.05 0.03 0.04 0.18 0.10 0.09 0.06 0.03 0.03 0.03 0.08 0.05 0.06 0.26 0.41 0.30 0.62 0.70 0.42 0.27 0.26 0.13 0.25 0.09 0.19 0.22 0.25 0.31 0.37 0.11 0.26 0.05 0.12 0.03
0.00 0.00 0.01 0.13 0.37 0.33 0.22 0.10 0.20 0.18 0.28 0.33 0.34 1.01 0.56 0.81 0.78 0.99 0.48 0.69 0.45 0.40 0.28 0.07 0.02 0.00 0.00 0.01 0.00 0.01 0.01 0.01 0.02 0.02 0.02 0.01 0.03 0.02 0.03 0.01 0.01 0.01 0.01 0.01 0.01 0.02 0.02 0.02 0.03 0.06 0.04 0.16 0.06 0.09 0.07 0.06 0.06 0.12 0.04 0.05 0.06 0.05 0.02 0.06 0.03 0.07 0.03 0.09 0.06 0.07 0.06 0.03 0.14 0.14 0.15 0.15 0.21 0.22 0.30 0.07 0.20 0.32 0.27 0.33 0.29 0.14 0.16 0.17 0.20 0.18 0.11 0.22 0.14 0.09 0.06 0.29 0.05
0.00 0.00 0.00 0.28 0.59 0.28 0.51 0.06 0.48 0.25 0.42 0.83 0.69 0.86 0.75 0.86 0.72 1.42 0.70 0.78 0.27 0.11 0.15 0.11 0.04 0.00 0.01 0.00 0.01 0.00 0.00 0.01 0.02 0.01 0.02 0.03 0.01 0.02 0.01 0.01 0.00 0.00 0.02 0.01 0.01 0.02 0.02 0.01 0.02 0.04 0.05 0.06 0.07 0.07 0.04 0.05 0.05 0.05 0.03 0.04 0.05 0.09 0.04 0.05 0.05 0.04 0.04 0.04 0.06 0.15 0.14 0.06 0.11 0.10 0.16 0.10 0.08 0.06 0.09 0.11 0.17 0.26 0.30 0.38 0.21 0.17 0.12 0.17 0.14 0.08 0.11 0.19 0.15 0.08 0.26 0.05 0.02
0.00 0.00 0.07 0.54 0.39 0.78 0.56 0.20 0.59 0.70 0.55 0.69 0.54 0.59 0.96 0.92 1.24 1.11 0.67 0.82 0.47 0.18 0.08 0.04 0.03 0.01 0.00 0.00 0.01 0.00 0.02 0.00 0.00 0.01 0.01 0.02 0.00 0.00 0.01 0.01 0.00 0.00 0.01 0.01 0.01 0.01 0.01 0.01 0.01 0.02 0.04 0.05 0.03 0.03 0.04 0.05 0.04 0.03 0.03 0.03 0.03 0.04 0.02 0.02 0.02 0.03 0.03 0.01 0.03 0.09 0.09 0.07 0.11 0.18 0.14 0.16 0.18 0.23 0.21 0.14 0.25 0.18 0.22 0.12 0.12 0.16 0.18 0.19 0.14 0.21 0.08 0.04 0.15 0.17 0.18 0.05 0.03
0.00 0.00 0.15 0.49 0.49 0.50 1.20 0.80 0.17 0.29 0.48 0.94 0.95 1.13 0.79 0.83 1.25 1.08 0.86 0.93 0.70 0.53 0.09 0.06 0.05 0.02 0.01 0.01 0.00 0.01 0.01 0.01 0.01 0.00 0.00 0.00 0.00 0.00 0.00 0.00 0.00 0.00 0.00 0.00 0.00 0.00 0.01 0.01 0.02 0.02 0.02 0.03 0.03 0.03 0.04 0.02 0.06 0.02 0.05 0.02 0.02 0.02 0.02 0.03 0.06 0.01 0.01 0.01 0.04 0.03 0.16 0.11 0.37 0.21 0.15 0.06 0.05 0.14 0.19 0.22 0.11 0.08 0.17 0.25 0.06 0.09 0.12 0.12 0.16 0.23 0.32 0.09 0.13 0.12 0.06 0.02 0.02
0.05 0.22 0.01 0.16 0.24 0.47 1.07 0.78 0.52 0.52 0.44 0.99 0.57 1.13 1.01 0.93 0.76 0.92 0.84 0.90 0.88 0.63 0.14 0.07 0.05 0.02 0.01 0.00 0.00 0.00 0.00 0.02 0.01 0.00 0.00 0.00 0.00 0.00 0.00 0.00 0.00 0.00 0.00 0.01 0.01 0.00 0.01 0.01 0.01 0.02 0.02 0.02 0.02 0.03 0.01 0.03 0.02 0.01 0.03 0.02 0.01 0.02 0.02 0.04 0.01 0.00 0.01 0.01 0.02 0.10 0.06 0.10 0.16 0.27 0.09 0.08 0.08 0.09 0.09 0.15 0.10 0.09 0.09 0.08 0.07 0.12 0.26 0.18 0.18 0.12 0.11 0.09 0.10 0.09 0.04 0.03 0.04
0.00 0.11 0.01 0.02 0.06 0.22 0.35 0.65 0.58 0.80 0.54 0.60 0.52 1.12 1.19 1.41 1.00 1.27 0.84 0.71 0.58 0.42 0.37 0.09 0.08 0.05 0.02 0.01 0.01 0.01 0.00 0.01 0.01 0.00 0.00 0.00 0.00 0.00 0.00 0.00 0.00 0.00 0.00 0.00 0.00 0.00 0.01 0.00 0.00 0.01 0.01 0.02 0.02 0.02 0.01 0.01 0.01 0.01 0.00 0.01 0.01 0.03 0.02 0.01 0.00 0.01 0.06 0.06 0.02 0.08 0.09 0.08 0.10 0.11 0.09 0.11 0.08 0.14 0.15 0.06 0.11 0.09 0.06 0.11 0.14 0.08 0.20 0.15 0.15 0.18 0.06 0.08 0.06 0.04 0.04 0.03 0.01
0.00 0.02 0.16 0.07 0.04 0.11 0.29 0.42 0.42 0.50 0.37 0.46 0.33 1.17 0.70 0.94 1.00 1.33 0.79 0.44 1.08 0.65 0.79 0.21 0.09 0.08 0.07 0.03 0.01 0.02 0.01 0.01 0.01 0.00 0.00 0.00 0.00 0.01 0.00 0.00 0.00 0.00 0.00 0.00 0.00 0.00 0.01 0.00 0.00 0.00 0.00 0.02 0.02 0.01 0.00 0.00 0.01 0.01 0.01 0.00 0.01 0.03 0.02 0.03 0.02 0.01 0.03 0.04 0.07 0.06 0.08 0.13 0.10 0.16 0.12 0.12 0.10 0.10 0.13 0.33 0.14 0.20 0.09 0.13 0.22 0.17 0.13 0.20 0.28 0.21 0.12 0.16 0.04 0.04 0.02 0.03 0.01
0.00 0.01 0.03 0.17 0.15 0.15 0.15 0.22 0.28 0.39 0.14 0.56 0.20 0.83 0.82 1.28 1.00 0.94 0.72 0.58 0.67 0.53 0.44 0.20 0.07 0.05 0.03 0.02 0.03 0.02 0.01 0.00 0.00 0.00 0.00 0.00 0.01 0.00 0.00 0.00 0.00 0.00 0.00 0.00 0.00 0.00 0.00 0.00 0.00 0.01 0.01 0.01 0.01 0.01 0.00 0.00 0.01 0.01 0.01 0.01 0.01 0.01 0.03 0.02 0.08 0.04 0.03 0.03 0.06 0.04 0.07 0.07 0.07 0.06 0.10 0.11 0.10 0.13 0.09 0.09 0.15 0.15 0.13 0.15 0.09 0.20 0.25 0.10 0.40 0.11 0.09 0.07 0.03 0.04 0.02 0.03 0.02
0.01 0.00 0.16 0.03 0.03 0.02 0.08 0.11 0.19 0.14 0.10 0.27 0.09 0.68 0.90 1.07 0.58 0.81 1.04 1.18 0.79 0.66 0.63 0.27 0.22 0.10 0.02 0.05 0.03 0.05 0.02 0.01 0.02 0.00 0.00 0.00 0.00 0.00 0.00 0.00 0.00 0.00 0.00 0.00 0.00 0.00 0.00 0.00 0.00 0.00 0.01 0.01 0.00 0.01 0.00 0.01 0.01 0.01 0.01 0.02 0.01 0.03 0.02 0.02 0.02 0.03 0.02 0.03 0.06 0.03 0.04 0.05 0.05 0.09 0.14 0.14 0.13 0.08 0.14 0.13 0.26 0.26 0.21 0.16 0.18 0.12 0.40 0.18 0.08 0.12 0.20 0.09 0.04 0.05 0.03 0.03 0.02
0.00 0.00 0.07 0.13 0.01 0.00 0.03 0.05 0.15 0.05 0.24 0.28 0.09 0.79 0.77 1.09 0.74 1.04 1.67 1.13 0.88 0.75 0.60 0.28 0.15 0.29 0.34 0.07 0.00 0.02 0.03 0.00 0.03 0.01 0.01 0.00 0.00 0.00 0.00 0.00 0.00 0.00 0.00 0.00 0.00 0.00 0.00 0.00 0.00 0.00 0.00 0.01 0.01 0.00 0.00 0.01 0.01 0.01 0.00 0.01 0.01 0.03 0.02 0.02 0.01 0.01 0.02 0.01 0.02 0.02 0.03 0.06 0.08 0.11 0.14 0.10 0.07 0.14 0.08 0.11 0.11 0.13 0.08 0.21 0.16 0.20 0.26 0.24 0.20 0.09 0.08 0.10 0.03 0.05 0.03 0.01 0.00
0.00 0.02 0.03 0.17 0.01 0.01 0.04 0.01 0.02 0.02 0.07 0.60 0.28 0.38 0.47 0.51 1.05 0.75 1.04 1.38 1.05 0.84 0.99 0.62 0.37 0.08 0.23 0.19 0.10 0.03 0.00 0.03 0.01 0.02 0.00 0.00 0.00 0.00 0.00 0.00 0.00 0.00 0.00 0.00 0.00 0.00 0.00 0.00 0.00 0.00 0.00 0.00 0.01 0.00 0.01 0.02 0.03 0.00 0.01 0.01 0.02 0.01 0.01 0.02 0.02 0.01 0.03 0.03 0.01 0.01 0.02 0.07 0.03 0.11 0.06 0.09 0.15 0.18 0.31 0.07 0.24 0.18 0.15 0.16 0.42 0.20 0.26 0.30 0.18 0.26 0.08 0.12 0.09 0.04 0.02 0.01 0.00
0.00 0.00 0.01 0.21 0.17 0.05 0.00 0.01 0.01 0.02 0.14 0.25 0.34 0.29 0.30 0.48 0.97 0.63 0.63 0.82 1.32 0.98 0.79 0.61 0.98 0.50 0.35 0.16 0.45 0.07 0.07 0.04 0.01 0.02 0.01 0.00 0.00 0.00 0.00 0.00 0.00 0.00 0.00 0.00 0.00 0.00 0.00 0.00 0.00 0.00 0.00 0.00 0.01 0.00 0.05 0.01 0.01 0.00 0.00 0.02 0.02 0.02 0.03 0.02 0.03 0.02 0.01 0.02 0.00 0.01 0.01 0.05 0.04 0.03 0.05 0.09 0.05 0.10 0.13 0.15 0.18 0.17 0.15 0.24 0.24 0.30 0.17 0.28 0.13 0.18 0.11 0.06 0.07 0.03 0.02 0.00 0.00
0.00 0.00 0.03 0.01 0.05 0.02 0.00 0.02 0.06 0.01 0.22 0.20 0.32 0.30 0.14 0.42 0.82 0.85 0.73 0.72 0.80 1.03 0.94 0.85 0.64 0.46 0.54 0.44 0.31 0.11 0.10 0.05 0.02 0.02 0.01 0.01 0.00 0.01 0.00 0.00 0.00 0.00 0.00 0.00 0.00 0.00 0.00 0.00 0.00 0.00 0.00 0.00 0.00 0.00 0.01 0.02 0.00 0.00 0.00 0.00 0.00 0.03 0.02 0.01 0.03 0.02 0.06 0.03 0.01 0.01 0.02 0.02 0.01 0.02 0.04 0.07 0.10 0.08 0.11 0.11 0.16 0.23 0.17 0.21 0.19 0.29 0.21 0.19 0.08 0.15 0.11 0.10 0.05 0.06 0.02 0.01 0.00
0.00 0.01 0.01 0.01 0.00 0.09 0.06 0.16 0.21 0.58 0.08 0.42 0.12 0.18 0.52 0.52 0.39 0.81 0.66 0.48 0.58 0.56 0.43 0.45 0.82 0.81 0.58 0.43 0.65 0.48 0.11 0.05 0.03 0.02 0.03 0.01 0.00 0.00 0.00 0.00 0.00 0.00 0.00 0.00 0.00 0.00 0.00 0.00 0.00 0.00 0.00 0.00 0.00 0.00 0.00 0.00 0.00 0.00 0.00 0.00 0.00 0.02 0.00 0.02 0.03 0.02 0.02 0.02 0.02 0.00 0.02 0.07 0.01 0.01 0.02 0.04 0.03 0.10 0.12 0.18 0.16 0.25 0.11 0.16 0.14 0.08 0.09 0.13 0.19 0.13 0.07 0.12 0.04 0.02 0.02 0.00 0.00
0.00 0.00 0.02 0.02 0.03 0.01 0.07 0.04 0.27 0.47 0.49 0.33 0.47 0.39 0.50 0.44 0.50 0.69 0.91 0.82 0.84 0.66 0.53 0.58 0.73 0.81 0.29 0.17 0.33 0.41 0.40 0.05 0.04 0.01 0.01 0.00 0.02 0.01 0.00 0.00 0.00 0.00 0.00 0.00 0.00 0.00 0.00 0.00 0.00 0.00 0.00 0.00 0.00 0.00 0.00 0.00 0.00 0.00 0.00 0.00 0.00 0.01 0.03 0.01 0.01 0.01 0.02 0.06 0.02 0.02 0.01 0.02 0.04 0.04 0.07 0.08 0.14 0.12 0.08 0.12 0.10 0.12 0.09 0.13 0.16 0.22 0.12 0.13 0.10 0.15 0.10 0.05 0.03 0.08 0.06 0.01 0.00
0.00 0.00 0.00 0.03 0.02 0.02 0.00 0.02 0.00 0.03 0.11 0.13 0.17 0.10 0.14 0.81 0.58 0.61 0.99 1.20 1.19 0.87 0.86 0.56 0.53 0.59 0.58 0.35 0.16 0.30 0.49 0.37 0.09 0.04 0.00 0.01 0.00 0.01 0.00 0.00 0.00 0.00 0.00 0.00 0.00 0.00 0.00 0.00 0.00 0.00 0.00 0.00 0.00 0.00 0.00 0.00 0.03 0.02 0.01 0.00 0.01 0.01 0.00 0.01 0.02 0.02 0.03 0.03 0.01 0.02 0.02 0.04 0.03 0.05 0.03 0.05 0.06 0.06 0.07 0.11 0.07 0.09 0.08 0.05 0.07 0.08 0.14 0.11 0.08 0.09 0.06 0.08 0.03 0.07 0.05 0.02 0.01
0.00 0.00 0.00 0.00 0.01 0.02 0.00 0.01 0.00 0.01 0.02 0.02 0.00 0.09 0.10 0.11 0.42 0.32 0.60 0.56 1.15 0.74 0.63 0.42 0.43 0.62 0.45 0.23 0.16 0.23 0.40 0.37 0.12 0.10 0.02 0.00 0.01 0.04 0.00 0.00 0.00 0.00 0.00 0.00 0.00 0.00 0.00 0.00 0.00 0.00 0.00 0.00 0.00 0.00 0.00 0.00 0.02 0.00 0.01 0.04 0.06 0.01 0.05 0.01 0.01 0.01 0.01 0.01 0.04 0.02 0.03 0.07 0.03 0.04 0.03 0.02 0.03 0.03 0.06 0.09 0.03 0.06 0.12 0.06 0.10 0.09 0.07 0.06 0.04 0.06 0.05 0.03 0.03 0.01 0.05 0.06 0.02
0.00 0.00 0.00 0.00 0.00 0.01 0.02 0.01 0.00 0.01 0.02 0.03 0.00 0.01 0.07 0.05 0.28 1.08 0.62 0.45 0.73 0.71 0.60 0.52 0.54 0.72 0.36 0.20 0.20 0.25 0.28 0.28 0.23 0.09 0.04 0.04 0.01 0.01 0.00 0.00 0.00 0.00 0.00 0.00 0.01 0.00 0.00 0.00 0.00 0.00 0.00 0.00 0.00 0.00 0.00 0.00 0.00 0.00 0.01 0.02 0.01 0.01 0.01 0.01 0.01 0.01 0.01 0.00 0.01 0.01 0.05 0.06 0.05 0.03 0.09 0.03 0.03 0.03 0.08 0.06 0.05 0.05 0.04 0.06 0.05 0.02 0.05 0.07 0.09 0.03 0.01 0.01 0.02 0.03 0.01 0.04 0.01
0.00 0.01 0.00 0.00 0.00 0.02 0.01 0.03 0.00 0.00 0.00 0.00 0.01 0.00 0.08 0.10 0.06 0.27 0.95 0.41 0.35 0.81 0.61 0.98 1.07 0.44 0.29 0.23 0.21 0.26 0.36 0.13 0.18 0.09 0.07 0.02 0.02 0.01 0.00 0.00 0.01 0.00 0.00 0.00 0.01 0.00 0.00 0.00 0.00 0.00 0.00 0.00 0.00 0.00 0.00 0.00 0.00 0.01 0.03 0.01 0.00 0.00 0.00 0.00 0.00 0.00 0.00 0.00 0.03 0.01 0.02 0.04 0.02 0.02 0.02 0.02 0.08 0.02 0.03 0.08 0.07 0.08 0.02 0.05 0.03 0.06 0.04 0.06 0.06 0.04 0.02 0.05 0.03 0.03 0.03 0.02 0.14
0.00 0.00 0.00 0.00 0.00 0.00 0.00 0.00 0.03 0.03 0.00 0.04 0.01 0.00 0.04 0.04 0.11 0.05 0.58 0.64 0.46 0.42 0.67 1.37 0.86 0.67 0.42 0.20 0.24 0.35 0.44 0.30 0.16 0.15 0.15 0.08 0.02 0.01 0.01 0.00 0.02 0.00 0.00 0.00 0.00 0.00 0.00 0.00 0.00 0.00 0.00 0.00 0.00 0.00 0.00 0.00 0.00 0.01 0.00 0.01 0.00 0.00 0.00 0.00 0.00 0.00 0.00 0.00 0.00 0.01 0.01 0.01 0.01 0.02 0.01 0.03 0.02 0.01 0.01 0.05 0.07 0.06 0.05 0.04 0.01 0.03 0.04 0.03 0.03 0.03 0.04 0.03 0.03 0.03 0.01 0.02 0.01
0.00 0.00 0.00 0.00 0.00 0.00 0.00 0.01 0.00 0.00 0.00 0.01 0.01 0.00 0.01 0.20 0.14 0.08 0.21 0.30 0.13 0.13 0.29 0.79 0.83 0.91 0.53 0.31 0.52 0.60 0.36 0.21 0.28 0.37 0.14 0.33 0.06 0.07 0.01 0.02 0.00 0.00 0.01 0.01 0.00 0.00 0.00 0.00 0.00 0.00 0.00 0.00 0.00 0.00 0.00 0.00 0.00 0.00 0.01 0.00 0.00 0.00 0.00 0.00 0.00 0.00 0.00 0.00 0.01 0.00 0.01 0.02 0.01 0.01 0.04 0.00 0.01 0.05 0.01 0.04 0.05 0.07 0.04 0.05 0.01 0.18 0.05 0.02 0.03 0.02 0.03 0.03 0.03 0.03 0.03 0.02 0.01
0.00 0.00 0.00 0.00 0.01 0.01 0.00 0.00 0.02 0.15 0.07 0.00 0.00 0.00 0.01 0.16 0.20 0.11 0.25 0.19 0.08 0.03 0.12 0.27 0.70 0.60 0.45 0.35 0.37 0.45 0.40 0.41 0.32 0.23 0.49 0.11 0.06 0.04 0.02 0.02 0.01 0.00 0.02 0.04 0.04 0.02 0.02 0.00 0.00 0.01 0.00 0.00 0.00 0.00 0.00 0.00 0.00 0.00 0.00 0.00 0.00 0.00 0.00 0.01 0.00 0.00 0.00 0.00 0.00 0.01 0.01 0.01 0.02 0.01 0.01 0.02 0.05 0.02 0.01 0.03 0.02 0.02 0.07 0.03 0.07 0.07 0.02 0.03 0.05 0.08 0.02 0.04 0.03 0.05 0.03 0.02 0.01
0.00 0.00 0.00 0.00 0.00 0.02 0.04 0.54 0.21 0.17 0.01 0.00 0.00 0.00 0.00 0.03 0.17 0.07 0.01 0.00 0.02 0.00 0.08 0.13 0.39 0.70 0.29 0.57 0.31 0.18 0.27 0.26 0.37 0.34 0.27 0.21 0.16 0.18 0.06 0.04 0.04 0.03 0.04 0.05 0.07 0.09 0.04 0.05 0.03 0.00 0.00 0.00 0.00 0.00 0.00 0.00 0.00 0.00 0.00 0.00 0.00 0.00 0.00 0.00 0.01 0.00 0.00 0.00 0.00 0.00 0.01 0.00 0.01 0.00 0.00 0.04 0.01 0.02 0.03 0.01 0.01 0.02 0.05 0.05 0.03 0.02 0.05 0.05 0.04 0.02 0.04 0.03 0.04 0.03 0.04 0.04 0.04
0.00 0.00 0.00 0.00 0.01 0.05 0.21 0.72 0.02 0.03 0.00 0.00 0.00 0.00 0.01 0.02 0.07 0.01 0.00 0.00 0.01 0.03 0.01 0.07 0.08 0.43 0.19 0.40 0.35 0.14 0.17 0.14 0.27 0.39 0.34 0.18 0.13 0.09 0.06 0.05 0.02 0.03 0.04 0.02 0.03 0.05 0.06 0.03 0.04 0.02 0.00 0.00 0.00 0.00 0.00 0.00 0.00 0.00 0.00 0.00 0.00 0.00 0.00 0.00 0.01 0.00 0.00 0.00 0.00 0.00 0.00 0.00 0.00 0.01 0.01 0.01 0.03 0.01 0.00 0.01 0.01 0.01 0.02 0.05 0.03 0.05 0.05 0.05 0.08 0.04 0.04 0.03 0.02 0.04 0.04 0.03 0.02
0.00 0.00 0.00 0.00 0.00 0.03 0.13 0.19 0.02 0.00 0.00 0.00 0.00 0.08 0.17 0.04 0.02 0.00 0.00 0.00 0.02 0.00 0.01 0.01 0.11 0.21 0.23 0.10 0.15 0.14 0.09 0.12 0.20 0.31 0.35 0.37 0.11 0.19 0.07 0.07 0.07 0.02 0.06 0.01 0.02 0.02 0.02 0.03 0.04 0.05 0.01 0.00 0.00 0.00 0.00 0.00 0.00 0.00 0.00 0.00 0.00 0.00 0.00 0.00 0.01 0.01 0.00 0.00 0.00 0.00 0.00 0.00 0.00 0.00 0.01 0.00 0.00 0.01 0.05 0.00 0.00 0.01 0.01 0.02 0.03 0.03 0.05 0.03 0.05 0.12 0.03 0.02 0.03 0.02 0.02 0.02 0.05
0.00 0.00 0.00 0.00 0.00 0.00 0.00 0.00 0.00 0.00 0.01 0.00 0.00 0.00 0.08 0.05 0.02 0.06 0.00 0.01 0.00 0.00 0.00 0.00 0.04 0.20 0.29 0.23 0.15 0.19 0.12 0.16 0.22 0.22 0.30 0.17 0.12 0.08 0.19 0.12 0.12 0.09 0.03 0.34 0.15 0.20 0.14 0.05 0.05 0.03 0.05 0.05 0.01 0.00 0.00 0.00 0.00 0.00 0.00 0.00 0.00 0.00 0.00 0.00 0.00 0.00 0.00 0.00 0.00 0.00 0.00 0.00 0.00 0.00 0.00 0.02 0.02 0.00 0.00 0.01 0.00 0.00 0.01 0.01 0.01 0.02 0.02 0.03 0.03 0.03 0.07 0.02 0.02 0.02 0.01 0.01 0.05
0.00 0.00 0.00 0.00 0.00 0.00 0.00 0.00 0.00 0.00 0.01 0.00 0.01 0.13 0.28 0.16 0.01 0.03 0.03 0.00 0.00 0.00 0.00 0.00 0.02 0.12 0.35 0.45 0.18 0.17 0.14 0.28 0.28 0.49 0.46 0.34 0.29 0.19 0.12 0.24 0.12 0.12 0.11 0.36 0.15 0.21 0.58 0.33 0.08 0.12 0.05 0.03 0.05 0.01 0.00 0.00 0.00 0.00 0.00 0.00 0.00 0.00 0.00 0.00 0.01 0.00 0.00 0.00 0.00 0.00 0.00 0.00 0.00 0.01 0.00 0.01 0.00 0.01 0.00 0.00 0.00 0.00 0.01 0.01 0.01 0.01 0.02 0.03 0.03 0.05 0.02 0.03 0.04 0.02 0.01 0.01 0.02
0.00 0.00 0.00 0.00 0.00 0.00 0.00 0.00 0.00 0.00 0.00 0.02 0.00 0.01 0.02 0.00 0.01 0.21 0.18 0.09 0.03 0.00 0.00 0.00 0.00 0.02 0.12 0.21 0.26 0.37 0.68 1.11 0.86 1.20 1.25 1.03 0.87 0.25 0.37 0.25 0.28 0.24 0.21 0.33 0.22 0.57 0.56 0.90 0.36 0.14 0.25 0.29 0.03 0.04 0.01 0.00 0.00 0.00 0.00 0.00 0.00 0.00 0.00 0.00 0.00 0.00 0.00 0.01 0.01 0.00 0.01 0.00 0.00 0.00 0.00 0.00 0.00 0.00 0.00 0.00 0.00 0.01 0.01 0.01 0.01 0.01 0.01 0.01 0.04 0.06 0.02 0.03 0.03 0.03 0.01 0.01 0.01
0.00 0.00 0.00 0.00 0.00 0.00 0.00 0.00 0.00 0.00 0.00 0.05 0.00 0.03 0.05 0.03 0.16 0.02 0.04 0.04 0.00 0.01 0.00 0.00 0.00 0.00 0.06 0.23 0.65 0.96 1.04 1.21 1.13 1.48 1.10 0.79 1.05 0.82 0.85 0.59 0.84 0.33 0.17 0.45 0.51 0.61 0.72 0.67 0.61 0.30 0.20 0.27 0.12 0.05 0.06 0.03 0.02 0.00 0.00 0.00 0.00 0.00 0.00 0.00 0.00 0.00 0.00 0.01 0.01 0.00 0.01 0.00 0.00 0.00 0.00 0.00 0.00 0.00 0.00 0.00 0.00 0.00 0.00 0.00 0.01 0.02 0.01 0.01 0.03 0.07 0.06 0.05 0.06 0.02 0.02 0.04 0.02
0.00 0.00 0.00 0.00 0.00 0.00 0.00 0.00 0.00 0.00 0.00 0.06 0.01 0.05 0.03 0.07 0.09 0.01 0.04 0.01 0.00 0.00 0.00 0.00 0.00 0.00 0.02 0.05 0.21 0.28 0.41 0.86 1.25 1.38 1.65 1.31 1.03 1.06 1.56 1.12 0.87 0.93 0.53 0.37 0.58 0.62 0.69 0.47 0.27 0.51 0.36 0.30 0.12 0.09 0.11 0.06 0.08 0.03 0.00 0.00 0.00 0.00 0.00 0.00 0.00 0.00 0.00 0.00 0.00 0.00 0.00 0.01 0.00 0.00 0.00 0.00 0.00 0.00 0.00 0.00 0.00 0.00 0.00 0.00 0.01 0.00 0.01 0.01 0.01 0.03 0.02 0.04 0.02 0.02 0.02 0.02 0.04
0.00 0.00 0.00 0.00 0.00 0.00 0.00 0.00 0.04 0.00 0.00 0.00 0.44 0.20 0.40 0.36 0.13 0.06 0.08 0.28 0.24 0.15 0.05 0.00 0.00 0.00 0.02 0.03 0.13 0.25 0.38 0.55 1.18 1.12 1.16 0.66 0.40 0.60 1.04 1.11 1.37 1.23 0.80 0.67 1.10 0.34 0.21 0.42 0.30 0.42 0.71 0.63 0.18 0.13 0.09 0.09 0.12 0.06 0.03 0.01 0.00 0.00 0.00 0.00 0.00 0.00 0.00 0.00 0.00 0.05 0.00 0.01 0.00 0.00 0.00 0.00 0.00 0.00 0.00 0.00 0.00 0.00 0.00 0.00 0.00 0.00 0.01 0.01 0.01 0.01 0.00 0.01 0.01 0.01 0.01 0.01 0.01
0.00 0.00 0.00 0.00 0.00 0.00 0.00 0.00 0.02 0.01 0.02 0.00 0.05 0.11 0.10 0.16 0.19 1.07 0.60 0.84 0.35 0.07 0.00 0.00 0.00 0.00 0.00 0.01 0.04 0.45 0.43 0.42 0.50 0.46 0.80 0.69 0.49 0.32 0.79 1.19 0.92 0.74 0.81 0.69 0.87 0.68 0.62 0.53 0.50 0.67 0.61 0.34 0.27 0.30 0.56 0.23 0.15 0.19 0.10 0.01 0.04 0.00 0.00 0.00 0.00 0.00 0.03 0.00 0.00 0.03 0.03 0.06 0.02 0.00 0.00 0.00 0.00 0.00 0.00 0.00 0.00 0.00 0.00 0.00 0.00 0.00 0.00 0.00 0.00 0.00 0.00 0.00 0.01 0.02 0.01 0.00 0.00
0.00 0.00 0.00 0.00 0.00 0.00 0.00 0.00 0.00 0.00 0.00 0.00 0.02 0.18 0.05 0.03 0.12 0.11 0.24 0.05 0.09 0.00 0.00 0.00 0.00 0.00 0.00 0.01 0.01 0.04 0.14 0.34 0.22 0.21 0.20 0.30 0.54 0.30 0.57 0.63 0.37 0.44 0.71 1.35 0.70 0.91 0.86 0.53 0.47 0.58 0.21 0.70 0.56 0.77 0.98 0.67 0.54 0.43 0.41 0.29 0.34 0.21 0.00 0.00 0.00 0.00 0.00 0.00 0.00 0.04 0.01 0.00 0.00 0.01 0.00 0.00 0.00 0.00 0.01 0.00 0.00 0.00 0.01 0.01 0.00 0.00 0.00 0.00 0.00 0.00 0.00 0.00 0.00 0.01 0.01 0.01 0.00